CAPE
0 0 0 0 0 0 0 0 0 0 0 0 0 0 0 0 0 0 0 0 0 0
0 0 0 0 0 0 0 0 0 0 0 0 0 0 0 0 0 0 0 0 0 0
0 0 0 0 0 0 0 0 0 0 0 0 0 0 0 0 0 0 0 0 0 0
1 0 0 0 0 0 0 0 0 0 0 0 0 0 0 0 0 0 0 0 0 0
2 0 0 1 0 0 0 0 0 0 0 0 0 0 0 0 0 0 0 0 0 0
1 0 0 0 0 0 0 0 0 0 0 0 0 0 0 0 0 0 0 0 0 0
0 0 0 0 0 0 0 0 0 0 0 0 0 0 0 0 0 0 0 0 0 0
0 0 0 0 0 0 0 0 0 0 0 0 0 0 0 0 0 0 0 0 0 0
0 0 0 0 0 0 0 0 0 0 0 0 0 0 0 0 0 0 0 0 0 0
0 0 0 0 0 0 0 0 0 0 0 0 0 0 0 0 0 0 0 0 0 0
0 0 0 0 0 0 0 0 0 0 0 0 0 0 0 0 0 0 0 0 0 0
0 0 0 0 0 0 0 0 0 0 0 0 0 0 0 0 0 0 0 0 0 0
0 0 0 0 0 0 0 0 0 0 0 0 0 0 0 0 0 0 0 0 0 0
0 0 0 0 0 0 0 0 0 0 0 0 0 0 0 0 0 0 0 0 0 0
CIN
-0 -0 -0 -0 -0 -0 -0 -0 -0 -0 -0 -0 -0 -0 -0 -0 -0 -0 -0 -0 -0 -0
-0 -0 -0 -0 -0 -0 -0 -0 -0 -0 -0 -0 -0 -0 -0 -0 -0 -0 -0 -0 -0 -0
-0 -0 -0 -0 -0 -0 -0 -0 -0 -0 -0 -0 -0 -0 -0 -0 -0 -0 -0 -0 -0 -0
-0 -0 -0 -0 -0 -0 -0 -0 -0 -0 -0 -0 -0 -0 -0 -0 -0 -0 -0 -0 -0 -0
-0 -0 -0 -0 -0 -0 -0 -0 -0 -0 -0 -0 -0 -0 -0 -0 -0 -0 -0 -0 -0 -0
-0 -0 -0 -0 -0 -0 -0 -0 -0 -0 -0 -0 -0 -0 -0 -0 -0 -0 -0 -0 -0 -0
-0 -0 -0 -0 -0 -0 -0 -0 -0 -0 -0 -0 -0 -0 -0 -0 -0 -0 -0 -0 -0 -0
-0 -0 -0 -0 -0 -0 -0 -0 -0 -0 -0 -0 -0 -0 -0 -0 -0 -0 -0 -0 -0 -0
-0 -0 -0 -0 -0 -0 -0 -0 -0 -0 -0 -0 -0 -0 -0 -0 -0 -0 -0 -0 -0 -0
-0 -0 -0 -0 -0 -0 -0 -0 -0 -0 -0 -0 -0 -0 -0 -0 -0 -0 -0 -0 -0 -0
-0 -0 -0 -0 -0 -0 -0 -0 -0 -0 -0 -0 -0 -0 -0 -0 -0 -0 -0 -0 -0 -0
-0 -0 -0 -0 -0 -0 -0 -0 -0 -0 -0 -0 -0 -0 -0 -0 -0 -0 -0 -0 -0 -0
-0 -0 -0 -0 -0 -0 -0 -0 -0 -0 -0 -0 -0 -0 -0 -0 -0 -0 -0 -0 -0 -0
-0 -0 -0 -0 -0 -0 -0 -0 -0 -0 -0 -0 -0 -0 -0 -0 -0 -0 -0 -0 -0 -0
Wind_Speed
16 12 12 11 9 8 7 7 9 9 9 8 9 7 6 6 7 8 7 8 7 6
13 15 19 18 10 8 9 7 9 8 9 8 8 8 8 6 7 9 7 7 7 6
15 14 15 17 16 13 11 11 11 11 9 8 7 8 8 7 7 8 5 5 8 5
15 15 14 17 16 14 14 12 10 10 9 9 9 9 9 9 9 9 8 5 7 4
16 15 14 13 15 18 15 12 12 11 10 9 10 9 9 8 7 8 7 5 4 3
14 14 13 14 14 15 16 13 13 12 12 11 9 8 7 7 7 6 6 5 3 2
15 15 15 16 15 14 13 13 12 9 10 9 8 8 7 7 6 5 4 3 2 2
16 16 17 16 16 14 13 11 11 10 7 7 7 6 7 6 6 5 4 2 0 2
17 18 18 17 17 15 13 12 11 10 9 7 5 13 12 8 5 4 3 1 0 2
17 18 16 16 16 14 13 12 10 10 9 7 6 12 11 10 5 4 2 0 1 2
18 16 14 14 14 12 12 12 10 10 9 8 5 10 9 9 4 3 2 2 2 1
16 15 13 14 14 11 11 10 9 8 8 7 5 9 9 7 4 3 0 2 1 2
15 17 15 13 12 9 10 9 7 8 6 9 6 6 6 6 2 2 0 1 2 5
13 14 14 11 9 10 10 9 7 8 5 6 5 3 4 3 2 2 2 2 2 3
Wind_Direction
169 154 151 146 151 143 140 139 141 128 123 122 110 110 94 92 100 102 100 103 99 98
174 168 154 137 146 139 129 129 122 112 112 107 112 113 115 115 110 105 102 113 105 95
164 155 151 137 147 140 128 126 122 113 113 110 101 110 115 109 113 108 115 111 106 99
163 158 157 150 148 141 137 130 128 121 134 141 142 131 130 134 137 128 121 104 100 120
164 161 157 157 152 146 141 139 132 149 147 134 133 141 139 136 139 130 120 116 128 136
164 158 142 143 140 129 130 136 137 145 140 140 141 139 128 132 123 119 132 146 157 167
143 137 137 134 125 128 132 137 133 135 128 132 134 129 123 119 126 125 130 143 158 205
132 131 126 122 119 118 119 122 115 110 110 125 127 124 131 135 132 133 122 104 216 257
125 123 121 121 120 119 120 119 124 133 141 136 131 144 140 132 118 115 133 151 318 341
122 119 122 125 120 125 133 135 142 139 139 134 122 133 130 128 130 141 144 206 343 310
119 118 125 124 129 140 147 150 143 133 129 129 133 129 125 126 126 124 162 209 209 250
127 129 135 139 143 147 138 132 132 135 137 130 126 130 124 126 142 162 135 14 346 258
142 144 146 139 145 138 132 127 128 121 126 133 121 118 122 136 142 121 157 312 269 301
135 129 127 128 135 124 119 120 122 119 111 117 130 117 93 74 154 192 209 216 294 290